Weather in Zhukovo

Russia / Smolensk Oblast     54°54′14″N   32°01′08″E
temp.,
°C
wind,
m/s
gust,
m/s
humid.,
%
clouds,
%
prec.,
mm/h
press.,
hPa
HPBL,
m
9 may, sun
sun900:00+3wnw31077100 0.0 1011572
03:00+2nw4118850 0.0 1014587
06:00+1nw412895 0.0 1016621
09:00+6nw510585 0.0 10181206
12:00+9nw684261 0.0 10192010
15:00+11nw573510 0.0 10202387
18:00+11nnw36435 0.0 10212074
21:00+5nw11625 0.0 102411
10 may, mon
mon1000:00+3wsw11715 0.0 102610
03:00+3wsw11745 0.0 102710
06:00+3s116911 0.0 102813
09:00+9s245211 0.0 1029451
12:00+13ssw33435 0.0 10291301
15:00+15ssw22435 0.0 10281404
18:00+14s11495 0.0 10281189
21:00+9se22700 0.0 102912
11 may, tue
tue1100:00+7ese22700 0.0 102913
03:00+6ese22780 0.0 103017
06:00+6e25765 0.0 103090
09:00+12e36522 0.0 1029485
12:00+16e47415 0.0 10281046
15:00+17e4637100 0.0 10261132
18:00+16e365296 0.0 1026842
21:00+11ene3108013 0.0 1026187
12 may, wed
wed1200:00+10e310900 0.0 1025219
03:00+9ene279535 0.0 1024117
06:00+10ene311895 0.0 1023279
09:00+15ene5117594 0.0 1021727
12:00+11sse4793100 0.6 1022612
15:00+14ese37665 1.6 10211001
18:00+15e466551 0.0 10211393
21:00+10ene3109126 0.0 1020297
13 may, thu
thu1300:00+9e3109546 0.0 1020249
03:00+8e3109599 0.0 1018268
06:00+10e41290100 0.1 1016439
09:00+10ese41195100 1.2 1015731
12:00+14se6117433 0.9 10151451
15:00+17s6115180 1.2 10142028
18:00+16sse4863100 0.0 10141470
21:00+12ese31085100 0.0 1014287